| time (UTC) | temp F | wind direction | speed knots | gust knots | rain 1hr in | rain 24hr in | rain mn in | humidity % | barometer mb |
| 20260507110040 | 53 | 0 | 0.0 | 0.0 | 0.00 | 0.16 | 0.08 | 95 | 1012.2 |
| 20260507104540 | 53 | 0 | 0.0 | 0.0 | 0.00 | 0.16 | 0.08 | 95 | 1012.1 |
| 20260507103050 | 53 | 0 | 0.0 | 0.0 | 0.00 | 0.16 | 0.08 | 95 | 1011.8 |
| 20260507101534 | 53 | 0 | 0.0 | 0.0 | 0.00 | 0.16 | 0.08 | 94 | 1011.7 |
| 20260507100042 | 53 | 0 | 0.0 | 0.0 | 0.00 | 0.16 | 0.08 | 94 | 1011.5 |
| 20260507094542 | 53 | 0 | 0.0 | 0.0 | 0.00 | 0.16 | 0.08 | 94 | 1011.5 |
| 20260507093036 | 54 | 0 | 0.0 | 0.9 | 0.00 | 0.16 | 0.08 | 94 | 1011.4 |
| 20260507091537 | 54 | 0 | 0.0 | 0.0 | 0.01 | 0.16 | 0.08 | 94 | 1011.5 |
| 20260507090041 | 55 | 0 | 0.0 | 0.9 | 0.01 | 0.16 | 0.08 | 95 | 1011.3 |
| 20260507084545 | 56 | 0 | 0.0 | 0.0 | 0.01 | 0.16 | 0.08 | 96 | 1011.1 |
| 20260507083041 | 56 | 0 | 0.0 | 0.9 | 0.01 | 0.16 | 0.08 | 96 | 1011.2 |
| 20260507081546 | 56 | 0 | 0.0 | 0.0 | 0.00 | 0.15 | 0.07 | 96 | 1011.0 |
| 20260507080040 | 56 | 0 | 0.0 | 0.0 | 0.00 | 0.15 | 0.07 | 96 | 1010.6 |
| 20260507074537 | 56 | 0 | 0.0 | 0.0 | 0.00 | 0.15 | 0.07 | 96 | 1010.5 |
| 20260507073034 | 56 | 0 | 0.0 | 0.0 | 0.00 | 0.15 | 0.07 | 96 | 1010.2 |
| 20260507071541 | 57 | 0 | 0.0 | 0.0 | 0.00 | 0.15 | 0.07 | 96 | 1010.5 |
| 20260507070045 | 57 | 0 | 0.0 | 0.0 | 0.00 | 0.15 | 0.07 | 96 | 1009.9 |
| 20260507064539 | 57 | 0 | 0.0 | 1.7 | 0.01 | 0.15 | 0.07 | 95 | 1009.8 |
| 20260507063041 | 58 | 0 | 0.0 | 0.9 | 0.02 | 0.15 | 0.07 | 96 | 1009.8 |
| 20260507061538 | 58 | 0 | 0.0 | 0.0 | 0.03 | 0.15 | 0.07 | 95 | 1009.3 |
| 20260507060042 | 59 | 0 | 0.0 | 0.0 | 0.04 | 0.15 | 0.07 | 95 | 1009.1 |
| 20260507054542 | 59 | 0 | 0.0 | 0.0 | 0.06 | 0.14 | 0.06 | 95 | 1009.8 |
| 20260507053040 | 59 | 0 | 0.0 | 0.0 | 0.05 | 0.13 | 0.05 | 94 | 1010.2 |
| 20260507051540 | 60 | 0 | 0.0 | 0.0 | 0.04 | 0.12 | 0.04 | 94 | 1010.3 |
| 20260507050036 | 60 | 280 | 0.0 | 0.9 | 0.03 | 0.11 | 0.03 | 91 | 1010.2 |
| 20260507044535 | 62 | 0 | 0.0 | 0.0 | 0.00 | 0.08 | 0.00 | 87 | 1010.1 |
| 20260507043048 | 63 | 0 | 0.0 | 1.7 | 0.00 | 0.08 | 0.00 | 83 | 1010.0 |
| 20260507041542 | 64 | 264 | 0.0 | 0.9 | 0.00 | 0.08 | 0.00 | 85 | 1010.4 |
| 20260507040041 | 65 | 0 | 0.0 | 0.9 | 0.00 | 0.08 | 0.00 | 87 | 1009.9 |
| 20260507034538 | 65 | 283 | 0.0 | 1.7 | 0.00 | 0.08 | 0.08 | 88 | 1009.5 |
| 20260507033035 | 66 | 0 | 0.0 | 0.0 | 0.00 | 0.08 | 0.08 | 90 | 1009.6 |
| 20260507031534 | 66 | 0 | 0.0 | 0.0 | 0.00 | 0.08 | 0.08 | 90 | 1009.2 |
| 20260507030042 | 66 | 0 | 0.0 | 0.0 | 0.00 | 0.08 | 0.08 | 90 | 1009.3 |
| 20260507024542 | 66 | 0 | 0.0 | 0.0 | 0.00 | 0.08 | 0.08 | 89 | 1009.0 |
| 20260507023043 | 66 | 0 | 0.0 | 0.0 | 0.00 | 0.08 | 0.08 | 89 | 1008.8 |
| 20260507021539 | 66 | 0 | 0.0 | 0.0 | 0.00 | 0.08 | 0.08 | 90 | 1008.7 |
| 20260507020047 | 66 | 0 | 0.0 | 0.0 | 0.00 | 0.08 | 0.08 | 89 | 1009.1 |
| 20260507014541 | 66 | 0 | 0.0 | 0.0 | 0.00 | 0.08 | 0.08 | 88 | 1009.1 |
| 20260507013040 | 66 | 0 | 0.0 | 0.0 | 0.00 | 0.08 | 0.08 | 88 | 1009.1 |
| 20260507011543 | 67 | 0 | 0.0 | 0.0 | 0.00 | 0.08 | 0.08 | 87 | 1009.3 |
| 20260507010041 | 67 | 0 | 0.0 | 0.0 | 0.00 | 0.08 | 0.08 | 86 | 1009.3 |
| 20260507004540 | 67 | 0 | 0.0 | 0.0 | 0.00 | 0.08 | 0.08 | 86 | 1009.1 |
| 20260507003036 | 67 | 0 | 0.0 | 0.0 | 0.00 | 0.08 | 0.08 | 85 | 1008.8 |
| 20260507001603 | 68 | 0 | 0.0 | 0.9 | 0.00 | 0.08 | 0.08 | 84 | 1008.8 |
| 20260507000041 | 68 | 0 | 0.0 | 0.9 | 0.00 | 0.08 | 0.08 | 83 | 1008.5 |
| 20260506234533 | 69 | 0 | 0.0 | 0.9 | 0.00 | 0.08 | 0.08 | 83 | 1008.3 |
| 20260506233033 | 69 | 0 | 0.0 | 0.9 | 0.00 | 0.08 | 0.08 | 83 | 1008.3 |
| 20260506231537 | 69 | 0 | 0.0 | 0.9 | 0.00 | 0.08 | 0.08 | 82 | 1008.2 |
| 20260506230051 | 69 | 0 | 0.0 | 1.7 | 0.00 | 0.08 | 0.08 | 82 | 1008.2 |
| 20260506224535 | 69 | 0 | 0.0 | 1.7 | 0.00 | 0.08 | 0.08 | 82 | 1008.1 |
| 20260506223042 | 69 | 0 | 0.0 | 0.9 | 0.00 | 0.08 | 0.08 | 81 | 1008.1 |
| 20260506221551 | 69 | 0 | 0.0 | 1.7 | 0.00 | 0.08 | 0.08 | 81 | 1008.2 |
| 20260506220040 | 69 | 0 | 0.0 | 2.6 | 0.00 | 0.08 | 0.08 | 81 | 1008.2 |
| 20260506214537 | 69 | 0 | 0.0 | 1.7 | 0.00 | 0.08 | 0.08 | 81 | 1008.3 |
| 20260506213035 | 68 | 0 | 0.0 | 2.6 | 0.00 | 0.08 | 0.08 | 81 | 1008.2 |
| 20260506211534 | 69 | 50 | 0.0 | 4.3 | 0.00 | 0.08 | 0.08 | 80 | 1008.1 |
| 20260506210052 | 69 | 0 | 0.0 | 4.3 | 0.00 | 0.08 | 0.08 | 80 | 1008.0 |
| 20260506204532 | 68 | 295 | 0.0 | 1.7 | 0.00 | 0.08 | 0.08 | 81 | 1007.9 |
| 20260506203039 | 68 | 309 | 0.9 | 3.5 | 0.00 | 0.08 | 0.08 | 81 | 1007.9 |
| 20260506201534 | 68 | 304 | 0.0 | 4.3 | 0.00 | 0.08 | 0.08 | 82 | 1007.9 |
| 20260506200040 | 67 | 305 | 0.0 | 3.5 | 0.00 | 0.08 | 0.08 | 82 | 1008.0 |
| 20260506194536 | 67 | 0 | 0.0 | 4.3 | 0.00 | 0.08 | 0.08 | 83 | 1008.1 |
| 20260506193042 | 67 | 104 | 0.0 | 5.2 | 0.00 | 0.08 | 0.08 | 83 | 1008.5 |
| 20260506191534 | 67 | 291 | 0.0 | 4.3 | 0.00 | 0.08 | 0.08 | 84 | 1008.8 |
| 20260506190040 | 67 | 200 | 0.0 | 3.5 | 0.00 | 0.08 | 0.08 | 84 | 1008.8 |
| 20260506184544 | 67 | 0 | 0.0 | 4.3 | 0.00 | 0.08 | 0.08 | 84 | 1008.8 |
| 20260506183035 | 66 | 0 | 0.0 | 3.5 | 0.00 | 0.08 | 0.08 | 84 | 1008.8 |
| 20260506181548 | 66 | 64 | 0.9 | 5.2 | 0.00 | 0.08 | 0.08 | 83 | 1009.2 |
| 20260506180040 | 66 | 256 | 0.0 | 6.1 | 0.00 | 0.08 | 0.08 | 84 | 1009.1 |
| 20260506174539 | 66 | 0 | 0.0 | 5.2 | 0.00 | 0.08 | 0.08 | 84 | 1009.5 |
| 20260506173044 | 66 | 310 | 0.0 | 2.6 | 0.00 | 0.08 | 0.08 | 85 | 1009.5 |
| 20260506171538 | 66 | 5 | 0.9 | 3.5 | 0.00 | 0.08 | 0.08 | 85 | 1009.6 |
| 20260506170043 | 65 | 0 | 0.9 | 5.2 | 0.00 | 0.08 | 0.08 | 88 | 1009.5 |
| 20260506164555 | 64 | 98 | 0.0 | 2.6 | 0.00 | 0.08 | 0.08 | 91 | 1009.5 |
| 20260506163048 | 63 | 0 | 0.0 | 4.3 | 0.01 | 0.08 | 0.08 | 91 | 1009.7 |
| 20260506161543 | 63 | 110 | 0.0 | 2.6 | 0.01 | 0.08 | 0.08 | 92 | 1009.9 |
| 20260506160045 | 63 | 173 | 0.0 | 4.3 | 0.04 | 0.08 | 0.08 | 93 | 1010.0 |
| 20260506154542 | 62 | 0 | 0.9 | 6.1 | 0.05 | 0.08 | 0.08 | 93 | 1010.0 |
| 20260506153041 | 62 | 0 | 0.0 | 3.5 | 0.05 | 0.07 | 0.07 | 94 | 1010.3 |
| 20260506151541 | 62 | 0 | 0.0 | 1.7 | 0.05 | 0.07 | 0.07 | 93 | 1010.4 |
| 20260506150048 | 62 | 0 | 0.0 | 5.2 | 0.03 | 0.04 | 0.04 | 94 | 1010.6 |
| 20260506144540 | 61 | 0 | 0.0 | 4.3 | 0.03 | 0.03 | 0.03 | 93 | 1010.7 |
| 20260506143040 | 61 | 0 | 0.0 | 2.6 | 0.02 | 0.02 | 0.02 | 92 | 1010.8 |
| 20260506141541 | 61 | 0 | 0.0 | 1.7 | 0.01 | 0.01 | 0.01 | 91 | 1010.8 |
| 20260506140034 | 62 | 0 | 0.0 | 4.3 | 0.01 | 0.01 | 0.01 | 90 | 1010.8 |
| 20260506134538 | 62 | 0 | 0.0 | 2.6 | 0.00 | 0.00 | 0.00 | 88 | 1011.1 |
| 20260506133050 | 63 | 287 | 0.0 | 2.6 | 0.00 | 0.00 | 0.00 | 85 | 1011.0 |
| 20260506131540 | 64 | 0 | 0.0 | 0.9 | 0.00 | 0.00 | 0.00 | 81 | 1011.0 |
| 20260506130040 | 64 | 0 | 0.0 | 3.5 | 0.00 | 0.00 | 0.00 | 79 | 1010.6 |
| 20260506124536 | 64 | 0 | 0.0 | 2.6 | 0.00 | 0.00 | 0.00 | 79 | 1010.4 |
| 20260506123035 | 64 | 98 | 0.0 | 2.6 | 0.00 | 0.00 | 0.00 | 79 | 1010.3 |
| 20260506121548 | 64 | 0 | 0.0 | 2.6 | 0.00 | 0.00 | 0.00 | 79 | 1010.7 |
| 20260506120056 | 65 | 0 | 0.0 | 2.6 | 0.00 | 0.00 | 0.00 | 77 | 1010.8 |
| 20260506114535 | 65 | 0 | 0.9 | 4.3 | 0.00 | 0.00 | 0.00 | 77 | 1010.7 |
| 20260506113034 | 65 | 0 | 0.0 | 4.3 | 0.00 | 0.00 | 0.00 | 78 | 1010.5 |
| 20260506111546 | 65 | 0 | 0.0 | 5.2 | 0.00 | 0.00 | 0.00 | 78 | 1010.4 |